Starlink 33851

operational
NORAD ID: 63683 Int'l Des: 2025-085 Owner: SPXS Country: US Constellation: starlink
LEOCIRCULAR

关于 Starlink 33851

正在加载描述...

实时位置

正在加载3D地球...

即将过境

高度历史

Altitude vs Time

uPlot chart will show altitude changes over time

两行轨道根数

1 63683U 25085V 25302.98542730 .00018073 00000-0 66420-3 0 9996
2 63683 43.0013 48.7817 0000825 270.6134 89.4623 15.27603164 28885
Epoch: Oct 29, 2025 • Age: 28 hours

当前状态

高度 494.0 km
速度 7.62 km/s
星下点 -39.11°S, 168.39°W
发射日期 Apr 28, 2025
运行时间 0.5 years
类型 internet

技术详情

分类 Payload
质量 575.00 kg
干质量 530.00 kg
总质量 575.00 kg
长度 0.30 m
直径 4.10 m
跨度 29.00 m
形状 Box + pan
制造商 SPXS
平台类型 Starlink V2MO
阶段状态 In Orbit
所有者/国家 SPXS/US

大型星座

Loading constellations...